Tracking 19279 objects as of 14-Nov-2018
HD Live streaming from Space Station
objects crossing your sky now

COSMOS 2300

Track COSMOS 2300 now!
10-day predictions
COSMOS 2300 is classified as:


NORAD ID: 23442
Int'l Code: 1994-086B
Perigee: 1,415.8 km
Apogee: 1,421.9 km
Inclination: 82.6 °
Period: 114.0 minutes
Semi major axis: 7789 km
RCS: 1.1654 m2 (large)
Launch date: December 26, 1994
Source: Commonwealth of Independent States (former USSR) (CIS)
Launch site: PLESETSK MISSILE AND SPACE COMPLEX (PKMTR)
aabbcc
Your satellite tracking list
Your tracking list is empty




NASA's NSSDC Master Catalog

Two Line Element Set (TLE):
1 23442U 94086B   18317.43432976 +.00000019 +00000-0 +45708-4 0  9998
2 23442 082.5609 278.1220 0003928 056.1261 062.1908 12.62736183100637
Source of the keplerian elements: AFSPC